KIDI

Details ICAO KIDI
Name INDIANA CO
Region United States
Timezone America/New_York (UTC-4.0)
Plans Departing 1
Arriving 6
Stats Elevation 1,405 ft / 428 m (AMSL)
Location 40.632227° -79.105531°
Runways 1
Magnetic Variation 9.932° W
Sunrise 2018-05-27 09:51:45 UTC / 2018-05-27 05:51:45 Local
Sunset 2018-05-28 00:38:20 UTC / 2018-05-27 20:38:20 Local
Advertisement - Login to hide

Runways

ID Width Length Bearing (true) Bearing (mag) Surface Threshold Offset Overrun Length
10 75 ft / 23 m 3,992 ft / 1,217 m 96.31° 106.24° Asphalt 0 ft / 0 m 0 ft / 0 m
28 75 ft / 23 m 3,992 ft / 1,217 m 276.32° 286.25° Asphalt 0 ft / 0 m 0 ft / 0 m

Map

Weather


0- 5 10 15 20 25 30 35+ Temperature / ° C

Clouds and Precipitation
Forecast for 2018-05-27 18:00 UTC. Updated an hour ago

Ground ~20,000 ft ~40,000 ft Winds

METAR

KIDI 271835Z AUTO 00000KT 8SM FEW022 SCT050 SCT060 25/20 A2999 RMK A01

TAF

Not found

Frequencies

Recorded 126.62 MHz AWOS 3
Unicom 122.80 MHz UNICOM
Warning: Do not use this data for real-world aviation or navigation. No guarantee of current accuracy is given.